Time,TemperatureF,DewpointF,PressureIn,WindDirection,WindDirectionDegrees,WindSpeedMPH,WindSpeedGustMPH,Humidity,HourlyPrecipIn,Conditions,Clouds,dailyrainin,SoftwareType,DateUTC
2013-02-06 00:11:00,30.6,28.0,29.97,NNW,335,2.0,-999.0,89,-99.99,,,0.00,weatherlink.com 1.10,2013-02-06 05:11:00,
2013-02-06 00:26:00,30.6,28.0,29.98,NW,326,4.0,-999.0,89,-99.99,,,0.00,weatherlink.com 1.10,2013-02-06 05:26:00,
2013-02-06 00:41:00,30.6,28.0,29.99,NNW,329,2.0,-999.0,89,-99.99,,,0.00,weatherlink.com 1.10,2013-02-06 05:41:00,
2013-02-06 00:56:00,30.4,28.0,29.99,WNW,294,0.0,-999.0,89,-99.99,,,0.00,weatherlink.com 1.10,2013-02-06 05:56:00,
2013-02-06 01:11:00,30.3,28.0,30.00,West,279,3.0,-999.0,89,-99.99,,,0.00,weatherlink.com 1.10,2013-02-06 06:11:00,
2013-02-06 01:26:00,30.2,27.0,30.00,WNW,284,0.0,-999.0,89,-99.99,,,0.00,weatherlink.com 1.10,2013-02-06 06:26:00,
2013-02-06 01:41:00,30.3,28.0,30.01,NW,314,0.0,-999.0,89,-99.99,,,0.00,weatherlink.com 1.10,2013-02-06 06:41:00,
2013-02-06 01:56:00,30.2,27.0,30.02,NW,307,0.0,-999.0,89,-99.99,,,0.00,weatherlink.com 1.10,2013-02-06 06:56:00,
2013-02-06 02:11:00,30.1,27.0,30.02,NW,304,3.0,-999.0,89,-99.99,,,0.00,weatherlink.com 1.10,2013-02-06 07:11:00,
2013-02-06 02:26:00,30.2,27.0,30.03,NW,304,0.0,-999.0,89,-99.99,,,0.00,weatherlink.com 1.10,2013-02-06 07:26:00,
2013-02-06 02:41:00,30.0,27.0,30.03,NW,311,0.0,-999.0,89,-99.99,,,0.00,weatherlink.com 1.10,2013-02-06 07:41:00,
2013-02-06 02:56:00,29.9,27.0,30.04,NW,307,0.0,-999.0,88,-99.99,,,0.00,weatherlink.com 1.10,2013-02-06 07:56:00,
2013-02-06 03:11:00,29.8,27.0,30.04,NW,307,0.0,-999.0,88,-99.99,,,0.00,weatherlink.com 1.10,2013-02-06 08:11:00,
2013-02-06 03:26:00,29.9,27.0,30.05,WNW,292,0.0,-999.0,88,-99.99,,,0.00,weatherlink.com 1.10,2013-02-06 08:26:00,
2013-02-06 03:41:00,29.9,27.0,30.06,West,279,1.0,-999.0,87,-99.99,,,0.00,weatherlink.com 1.10,2013-02-06 08:41:00,
2013-02-06 03:56:00,29.9,27.0,30.07,NW,326,0.0,-999.0,87,-99.99,,,0.00,weatherlink.com 1.10,2013-02-06 08:56:00,
2013-02-06 04:11:00,29.6,26.0,30.07,NW,324,0.0,-999.0,87,-99.99,,,0.00,weatherlink.com 1.10,2013-02-06 09:11:00,
2013-02-06 04:26:00,29.6,26.0,30.07,NW,323,1.0,-999.0,87,-99.99,,,0.00,weatherlink.com 1.10,2013-02-06 09:26:00,
2013-02-06 04:41:00,29.4,26.0,30.07,NW,323,0.0,-999.0,86,-99.99,,,0.00,weatherlink.com 1.10,2013-02-06 09:41:00,
2013-02-06 04:56:00,29.2,26.0,30.08,NW,324,2.0,-999.0,86,-99.99,,,0.00,weatherlink.com 1.10,2013-02-06 09:56:00,
2013-02-06 05:11:00,29.3,26.0,30.09,NNW,337,2.0,-999.0,87,-99.99,,,0.00,weatherlink.com 1.10,2013-02-06 10:11:00,
2013-02-06 05:26:00,29.1,25.0,30.10,NNW,346,2.0,-999.0,86,-99.99,,,0.00,weatherlink.com 1.10,2013-02-06 10:26:00,
2013-02-06 05:41:00,28.7,27.0,30.11,North,351,0.0,-999.0,92,-99.99,,,0.00,weatherlink.com 1.10,2013-02-06 10:41:00,
2013-02-06 05:56:00,28.5,25.0,30.12,North,351,0.0,-999.0,85,-99.99,,,0.00,weatherlink.com 1.10,2013-02-06 10:56:00,
2013-02-06 06:11:00,28.3,24.0,30.13,NNE,25,0.0,-999.0,85,-99.99,,,0.00,weatherlink.com 1.10,2013-02-06 11:11:00,
2013-02-06 06:26:00,28.0,24.0,30.14,NNE,14,1.0,-999.0,85,-99.99,,,0.00,weatherlink.com 1.10,2013-02-06 11:26:00,
2013-02-06 06:41:00,27.4,23.0,30.14,NE,46,1.0,-999.0,84,-99.99,,,0.00,weatherlink.com 1.10,2013-02-06 11:41:00,
2013-02-06 06:56:00,27.0,23.0,30.16,NE,41,0.0,-999.0,84,-99.99,,,0.00,weatherlink.com 1.10,2013-02-06 11:56:00,
2013-02-06 07:11:00,26.7,22.0,30.17,NE,41,0.0,-999.0,83,-99.99,,,0.00,weatherlink.com 1.10,2013-02-06 12:11:00,
2013-02-06 07:29:00,26.3,22.0,30.17,NE,55,3.0,-999.0,83,-99.99,,,0.00,weatherlink.com 1.10,2013-02-06 12:29:00,
2013-02-06 07:41:00,26.0,22.0,30.18,NE,39,1.0,-999.0,83,-99.99,,,0.00,weatherlink.com 1.10,2013-02-06 12:41:00,
2013-02-06 07:56:00,25.7,21.0,30.18,NE,38,1.0,-999.0,82,-99.99,,,0.00,weatherlink.com 1.10,2013-02-06 12:56:00,
2013-02-06 08:11:00,25.6,21.0,30.19,NE,44,1.0,-999.0,82,-99.99,,,0.00,weatherlink.com 1.10,2013-02-06 13:11:00,
2013-02-06 08:26:00,25.4,20.0,30.20,NE,44,1.0,-999.0,81,-99.99,,,0.00,weatherlink.com 1.10,2013-02-06 13:26:00,
2013-02-06 08:41:00,25.5,20.0,30.20,NE,44,2.0,-999.0,81,-99.99,,,0.00,weatherlink.com 1.10,2013-02-06 13:41:00,
2013-02-06 08:56:00,25.7,21.0,30.21,NE,45,2.0,-999.0,81,-99.99,,,0.00,weatherlink.com 1.10,2013-02-06 13:56:00,
2013-02-06 09:11:00,26.2,21.0,30.21,NE,46,0.0,-999.0,80,-99.99,,,0.00,weatherlink.com 1.10,2013-02-06 14:11:00,
2013-02-06 09:26:00,26.6,21.0,30.21,East,100,0.0,-999.0,80,-99.99,,,0.00,weatherlink.com 1.10,2013-02-06 14:26:00,
2013-02-06 09:41:00,27.4,22.0,30.21,East,100,0.0,-999.0,79,-99.99,,,0.00,weatherlink.com 1.10,2013-02-06 14:41:00,
2013-02-06 09:56:00,28.0,22.0,30.21,ESE,111,0.0,-999.0,78,-99.99,,,0.00,weatherlink.com 1.10,2013-02-06 14:56:00,
2013-02-06 10:11:00,28.5,22.0,30.20,ESE,111,2.0,-999.0,78,-99.99,,,0.00,weatherlink.com 1.10,2013-02-06 15:11:00,
2013-02-06 10:26:00,28.6,22.0,30.21,ENE,66,0.0,-999.0,77,-99.99,,,0.00,weatherlink.com 1.10,2013-02-06 15:26:00,
2013-02-06 10:41:00,28.5,22.0,30.21,ESE,111,0.0,-999.0,76,-99.99,,,0.00,weatherlink.com 1.10,2013-02-06 15:41:00,
2013-02-06 10:56:00,28.8,22.0,30.22,ESE,117,0.0,-999.0,75,-99.99,,,0.00,weatherlink.com 1.10,2013-02-06 15:56:00,
2013-02-06 11:11:00,29.2,22.0,30.22,ENE,75,0.0,-999.0,74,-99.99,,,0.00,weatherlink.com 1.10,2013-02-06 16:11:00,
2013-02-06 11:26:00,29.4,22.0,30.23,ENE,74,1.0,-999.0,74,-99.99,,,0.01,weatherlink.com 1.10,2013-02-06 16:26:00,
2013-02-06 11:41:00,28.9,21.0,30.24,ENE,69,1.0,-999.0,73,-99.99,,,0.01,weatherlink.com 1.10,2013-02-06 16:41:00,
2013-02-06 11:56:00,30.1,22.0,30.24,ENE,60,2.0,-999.0,72,-99.99,,,0.01,weatherlink.com 1.10,2013-02-06 16:56:00,
2013-02-06 12:11:00,29.7,22.0,30.24,ENE,78,1.0,-999.0,72,-99.99,,,0.01,weatherlink.com 1.10,2013-02-06 17:11:00,
2013-02-06 12:26:00,30.5,22.0,30.24,ESE,115,0.0,-999.0,72,-99.99,,,0.01,weatherlink.com 1.10,2013-02-06 17:26:00,
2013-02-06 12:41:00,31.1,23.0,30.23,SE,134,0.0,-999.0,71,-99.99,,,0.01,weatherlink.com 1.10,2013-02-06 17:41:00,
2013-02-06 12:56:00,31.1,22.0,30.23,ENE,75,2.0,-999.0,70,-99.99,,,0.01,weatherlink.com 1.10,2013-02-06 17:56:00,
2013-02-06 13:11:00,31.7,23.0,30.22,SE,141,3.0,-999.0,70,-99.99,,,0.01,weatherlink.com 1.10,2013-02-06 18:11:00,
2013-02-06 13:26:00,31.9,23.0,30.22,East,95,0.0,-999.0,70,-99.99,,,0.01,weatherlink.com 1.10,2013-02-06 18:26:00,
2013-02-06 13:41:00,32.0,23.0,30.21,East,92,2.0,-999.0,69,-99.99,,,0.01,weatherlink.com 1.10,2013-02-06 18:41:00,
2013-02-06 13:56:00,31.9,23.0,30.22,ESE,109,2.0,-999.0,69,-99.99,,,0.01,weatherlink.com 1.10,2013-02-06 18:56:00,
2013-02-06 14:11:00,31.9,23.0,30.22,SE,126,0.0,-999.0,69,-99.99,,,0.01,weatherlink.com 1.10,2013-02-06 19:11:00,
2013-02-06 14:26:00,32.4,23.0,30.22,ESE,121,0.0,-999.0,68,-99.99,,,0.01,weatherlink.com 1.10,2013-02-06 19:26:00,
2013-02-06 14:41:00,32.4,23.0,30.21,ESE,116,0.0,-999.0,68,-99.99,,,0.01,weatherlink.com 1.10,2013-02-06 19:41:00,
2013-02-06 14:56:00,32.4,23.0,30.22,ESE,123,0.0,-999.0,68,-99.99,,,0.01,weatherlink.com 1.10,2013-02-06 19:56:00,
2013-02-06 15:11:00,33.5,24.0,30.22,ESE,123,3.0,-999.0,68,-99.99,,,0.01,weatherlink.com 1.10,2013-02-06 20:11:00,
2013-02-06 15:26:00,33.4,23.0,30.23,South,184,1.0,-999.0,67,-99.99,,,0.01,weatherlink.com 1.10,2013-02-06 20:26:00,
2013-02-06 15:41:00,33.8,24.0,30.23,ESE,117,1.0,-999.0,67,-99.99,,,0.01,weatherlink.com 1.10,2013-02-06 20:41:00,
2013-02-06 15:56:00,33.4,23.0,30.21,ESE,118,0.0,-999.0,67,-99.99,,,0.02,weatherlink.com 1.10,2013-02-06 20:56:00,
2013-02-06 16:11:00,33.0,23.0,30.21,ESE,109,0.0,-999.0,67,-99.99,,,0.02,weatherlink.com 1.10,2013-02-06 21:11:00,
2013-02-06 16:26:00,32.6,23.0,30.22,ESE,110,0.0,-999.0,67,-99.99,,,0.02,weatherlink.com 1.10,2013-02-06 21:26:00,
2013-02-06 16:41:00,32.5,23.0,30.23,ESE,110,0.0,-999.0,67,-99.99,,,0.02,weatherlink.com 1.10,2013-02-06 21:41:00,
2013-02-06 16:56:00,32.8,23.0,30.23,ESE,110,0.0,-999.0,66,-99.99,,,0.02,weatherlink.com 1.10,2013-02-06 21:56:00,
2013-02-06 17:11:00,32.2,22.0,30.23,ESE,110,0.0,-999.0,66,-99.99,,,0.02,weatherlink.com 1.10,2013-02-06 22:11:00,
2013-02-06 17:26:00,31.6,21.0,30.23,ESE,110,2.0,-999.0,66,-99.99,,,0.02,weatherlink.com 1.10,2013-02-06 22:26:00,
2013-02-06 17:41:00,30.4,20.0,30.23,East,88,0.0,-999.0,66,-99.99,,,0.02,weatherlink.com 1.10,2013-02-06 22:41:00,
2013-02-06 17:56:00,29.4,20.0,30.22,East,88,0.0,-999.0,67,-99.99,,,0.02,weatherlink.com 1.10,2013-02-06 22:56:00,
2013-02-06 18:11:00,28.7,19.0,30.22,East,88,0.0,-999.0,67,-99.99,,,0.02,weatherlink.com 1.10,2013-02-06 23:11:00,
2013-02-06 18:26:00,28.1,18.0,30.23,East,88,0.0,-999.0,67,-99.99,,,0.02,weatherlink.com 1.10,2013-02-06 23:26:00,
2013-02-06 18:41:00,27.8,18.0,30.23,East,88,0.0,-999.0,68,-99.99,,,0.02,weatherlink.com 1.10,2013-02-06 23:41:00,
2013-02-06 18:56:00,27.6,19.0,30.23,East,88,0.0,-999.0,69,-99.99,,,0.02,weatherlink.com 1.10,2013-02-06 23:56:00,
2013-02-06 19:11:00,27.2,18.0,30.22,East,88,0.0,-999.0,69,-99.99,,,0.02,weatherlink.com 1.10,2013-02-07 00:11:00,
2013-02-06 19:26:00,26.7,18.0,30.22,East,88,0.0,-999.0,69,-99.99,,,0.02,weatherlink.com 1.10,2013-02-07 00:26:00,
2013-02-06 19:41:00,26.4,18.0,30.22,East,88,0.0,-999.0,70,-99.99,,,0.02,weatherlink.com 1.10,2013-02-07 00:41:00,
2013-02-06 19:56:00,26.3,18.0,30.22,ESE,105,0.0,-999.0,71,-99.99,,,0.02,weatherlink.com 1.10,2013-02-07 00:56:00,
2013-02-06 20:14:00,26.3,18.0,30.22,ESE,105,0.0,-999.0,71,-99.99,,,0.02,weatherlink.com 1.10,2013-02-07 01:14:00,
2013-02-06 20:26:00,26.2,18.0,30.21,ESE,105,0.0,-999.0,71,-99.99,,,0.02,weatherlink.com 1.10,2013-02-07 01:26:00,
2013-02-06 20:41:00,26.1,18.0,30.23,ESE,107,0.0,-999.0,72,-99.99,,,0.02,weatherlink.com 1.10,2013-02-07 01:41:00,
2013-02-06 20:56:00,25.9,18.0,30.21,ESE,107,0.0,-999.0,72,-99.99,,,0.02,weatherlink.com 1.10,2013-02-07 01:56:00,
2013-02-06 21:11:00,26.0,18.0,30.19,ESE,109,0.0,-999.0,72,-99.99,,,0.02,weatherlink.com 1.10,2013-02-07 02:11:00,
2013-02-06 21:26:00,26.1,18.0,30.20,SE,141,0.0,-999.0,72,-99.99,,,0.02,weatherlink.com 1.10,2013-02-07 02:26:00,
2013-02-06 21:41:00,26.0,18.0,30.20,East,83,0.0,-999.0,73,-99.99,,,0.02,weatherlink.com 1.10,2013-02-07 02:41:00,
2013-02-06 21:56:00,25.9,18.0,30.20,ENE,77,1.0,-999.0,73,-99.99,,,0.02,weatherlink.com 1.10,2013-02-07 02:56:00,
2013-02-06 22:11:00,25.8,18.0,30.20,ENE,77,0.0,-999.0,73,-99.99,,,0.02,weatherlink.com 1.10,2013-02-07 03:11:00,
2013-02-06 22:26:00,25.7,18.0,30.19,ESE,109,0.0,-999.0,74,-99.99,,,0.02,weatherlink.com 1.10,2013-02-07 03:26:00,
2013-02-06 22:41:00,25.5,18.0,30.18,ESE,119,0.0,-999.0,74,-99.99,,,0.02,weatherlink.com 1.10,2013-02-07 03:41:00,
2013-02-06 22:56:00,25.3,18.0,30.19,SE,129,1.0,-999.0,74,-99.99,,,0.02,weatherlink.com 1.10,2013-02-07 03:56:00,
2013-02-06 23:11:00,25.5,19.0,30.17,ESE,123,0.0,-999.0,75,-99.99,,,0.02,weatherlink.com 1.10,2013-02-07 04:11:00,
2013-02-06 23:26:00,25.8,19.0,30.17,ESE,121,2.0,-999.0,75,-99.99,,,0.02,weatherlink.com 1.10,2013-02-07 04:26:00,
2013-02-06 23:41:00,26.1,20.0,30.16,SE,138,0.0,-999.0,76,-99.99,,,0.02,weatherlink.com 1.10,2013-02-07 04:41:00,
2013-02-06 23:56:00,26.5,20.0,30.17,SSE,148,0.0,-999.0,76,-99.99,,,0.02,weatherlink.com 1.10,2013-02-07 04:56:00,